Sulphur, LA

1:42 PM CDT on October 20, 2017 (GMT -0500)
Sulphur

Weather History for KUXL - November, 2013

Change the Weather History Date:

Wednesday, November 13, 2013

  Actual Average (KLCH) Record (KLCH)
Temperature  
Mean Temperature 46 °F -  
Max Temperature 58 °F 70 °F 88 °F (1916)
Min Temperature 35 °F 48 °F 28 °F (1912)
Degree Days  
Heating Degree Days 18    
Moisture  
Dew Point 28 °F    
Average Humidity 53    
Maximum Humidity 73    
Minimum Humidity 26    
Precipitation  
Precipitation 0.00 in - - ()
Sea Level Pressure  
Sea Level Pressure 30.51 in    
Wind  
Wind Speed 10 mph (NNE)    
Max Wind Speed 15 mph    
Max Gust Speed 24 mph    
Visibility 10 miles    
Events      
Averages and records for this station are not official NWS values.
T = Trace of Precipitation, MM = Missing Value Source: NWS Daily Summary

Daily Weather History Graph

Daily Weather History Graph

Search for Another Location

Airport or City:

Trip Planner

Search our weather history database for the weather conditions in past years. The results will help you decide how hot, cold, wet, or windy it might be!

Date:

Astronomy

Nov. 13, 2013 Rise Set
Actual Time 6:37 AM CST 5:17 PM CST
Civil Twilight 6:12 AM CST 5:43 PM CST
Nautical Twilight 5:43 AM CST 6:12 PM CST
Astronomical Twilight 5:14 AM CST 6:40 PM CST
Moon 2:51 PM CST (11/13) 2:47 AM CST (11/13)
Length of Visible Light 11h 31m
Length of Day
10h 40m
Waxing Gibbous, 85% of the Moon is Illuminated
Nov 13
Waxing Gibbous
Nov 17
Full
Nov 25
Last Quarter
Dec 2
New
Dec 9
First Quarter

Hourly Weather History & Observations

Time (CST) Temp. Windchill Dew Point Humidity Pressure Visibility Wind Dir Wind Speed Gust Speed Precip Events Conditions
12:15 AM 41.9 °F 35.4 °F 29.3 °F 61% 30.56 in 10.0 mi North 11.5 mph 24.2 mph N/A   Clear
12:35 AM 41.2 °F 35.0 °F 29.5 °F 63% 30.57 in 10.0 mi NNE 10.4 mph 20.7 mph N/A   Clear
12:55 AM 41.0 °F 33.9 °F 29.3 °F 63% 30.56 in 10.0 mi North 12.7 mph 24.2 mph N/A   Clear
1:15 AM 40.3 °F 33.4 °F 29.3 °F 65% 30.56 in 10.0 mi North 11.5 mph 21.9 mph N/A   Clear
1:35 AM 39.9 °F 32.5 °F 29.3 °F 66% 30.56 in 10.0 mi North 12.7 mph 19.6 mph N/A   Clear
1:55 AM 39.4 °F 31.8 °F 29.3 °F 67% 30.56 in 10.0 mi North 12.7 mph 19.6 mph N/A   Clear
2:15 AM 39.2 °F 31.2 °F 28.9 °F 67% 30.55 in 10.0 mi North 13.8 mph 23.0 mph N/A   Clear
2:35 AM 38.8 °F 31.6 °F 28.4 °F 66% 30.56 in 10.0 mi NNE 11.5 mph 18.4 mph N/A   Clear
2:55 AM 38.3 °F 29.7 °F 28.2 °F 67% 30.56 in 10.0 mi North 15.0 mph 19.6 mph N/A   Clear
3:15 AM 38.1 °F 29.5 °F 28.2 °F 68% 30.56 in 10.0 mi North 15.0 mph 19.6 mph N/A   Clear
3:35 AM 38.1 °F 29.8 °F 28.2 °F 68% 30.57 in 10.0 mi North 13.8 mph 20.7 mph N/A   Clear
3:55 AM 37.6 °F 29.6 °F 28.2 °F 69% 30.57 in 10.0 mi North 12.7 mph 18.4 mph N/A   Clear
4:15 AM 37.0 °F 31.6 °F 28.4 °F 71% 30.58 in 10.0 mi North 6.9 mph 17.3 mph N/A   Clear
4:35 AM 36.9 °F 29.6 °F 28.4 °F 71% 30.58 in 10.0 mi North 10.4 mph 18.4 mph N/A   Clear
4:55 AM 36.5 °F 28.2 °F 28.4 °F 72% 30.58 in 10.0 mi North 12.7 mph 16.1 mph N/A   Clear
5:15 AM 36.3 °F 28.4 °F 28.2 °F 72% 30.58 in 10.0 mi North 11.5 mph - N/A   Clear
5:35 AM 36.0 °F 28.0 °F 27.9 °F 72% 30.58 in 10.0 mi North 11.5 mph - N/A   Clear
5:55 AM 35.8 °F 27.3 °F 27.5 °F 72% 30.58 in 10.0 mi North 12.7 mph 18.4 mph N/A   Clear
6:15 AM 35.6 °F 28.6 °F 27.3 °F 72% 30.58 in 10.0 mi North 9.2 mph 19.6 mph N/A   Clear
6:35 AM 35.1 °F 27.4 °F 27.3 °F 73% 30.58 in 10.0 mi North 10.4 mph 18.4 mph N/A   Clear
6:55 AM 35.2 °F 27.6 °F 27.3 °F 73% 30.59 in 10.0 mi North 10.4 mph 19.6 mph N/A   Clear
7:15 AM 35.6 °F 28.6 °F 27.3 °F 72% 30.59 in 10.0 mi North 9.2 mph 18.4 mph N/A   Clear
7:35 AM 36.1 °F 28.7 °F 27.3 °F 70% 30.60 in 10.0 mi North 10.4 mph 19.6 mph N/A   Clear
7:55 AM 37.0 °F 29.8 °F 27.1 °F 67% 30.60 in 10.0 mi North 10.4 mph 18.4 mph N/A   Clear
8:15 AM 37.9 °F 30.0 °F 27.1 °F 65% 30.60 in 10.0 mi North 12.7 mph 18.4 mph N/A   Clear
8:35 AM 39.9 °F 32.5 °F 27.5 °F 61% 30.60 in 10.0 mi North 12.7 mph 16.1 mph N/A   Clear
8:55 AM 41.0 °F 33.9 °F 27.0 °F 57% 30.59 in 10.0 mi North 12.7 mph 16.1 mph N/A   Clear
9:15 AM 42.4 °F 36.1 °F 26.8 °F 54% 30.59 in 10.0 mi North 11.5 mph 16.1 mph N/A   Clear
9:35 AM 43.9 °F 37.5 °F 26.4 °F 50% 30.59 in 10.0 mi North 12.7 mph - N/A   Clear
9:55 AM 44.8 °F 39.4 °F 25.5 °F 47% 30.58 in 10.0 mi North 10.4 mph 17.3 mph N/A   Clear
10:15 AM 45.7 °F 40.2 °F 24.3 °F 43% 30.58 in 10.0 mi NNE 11.5 mph 17.3 mph N/A   Clear
10:35 AM 47.7 °F - 25.0 °F 41% 30.58 in 10.0 mi North 9.2 mph - N/A   Clear
10:55 AM 48.7 °F - 25.0 °F 40% 30.58 in 10.0 mi North 9.2 mph - N/A   Clear
11:15 AM 50.2 °F - 24.6 °F 37% 30.56 in 10.0 mi NNE 10.4 mph 16.1 mph N/A   Clear
11:35 AM 51.6 °F - 24.8 °F 35% 30.55 in 10.0 mi North 11.5 mph - N/A   Clear
11:55 AM 52.5 °F - 24.4 °F 34% 30.53 in 10.0 mi North 9.2 mph 19.6 mph N/A   Clear
12:15 PM 54.1 °F - 25.3 °F 33% 30.51 in 10.0 mi North 10.4 mph 18.4 mph N/A   Clear
12:35 PM 54.1 °F - 24.4 °F 32% 30.49 in 10.0 mi North 11.5 mph 16.1 mph N/A   Clear
12:55 PM 54.5 °F - 24.3 °F 31% 30.48 in 10.0 mi North 11.5 mph 19.6 mph N/A   Clear
1:15 PM 54.5 °F - 24.6 °F 31% 30.47 in 10.0 mi North 11.5 mph 19.6 mph N/A   Clear
1:35 PM 56.5 °F - 24.4 °F 29% 30.47 in 10.0 mi North 11.5 mph - N/A   Clear
1:55 PM 57.0 °F - 24.4 °F 29% 30.46 in 10.0 mi NNW 11.5 mph - N/A   Clear
2:15 PM 57.9 °F - 22.6 °F 26% 30.46 in 10.0 mi NNE 8.1 mph 16.1 mph N/A   Clear
2:35 PM 58.1 °F - 25.2 °F 28% 30.45 in 10.0 mi North 8.1 mph - N/A   Clear
2:55 PM 57.7 °F - 23.5 °F 27% 30.45 in 10.0 mi NNE 11.5 mph 17.3 mph N/A   Clear
3:15 PM 57.0 °F - 23.7 °F 28% 30.45 in 10.0 mi NNE 9.2 mph - N/A   Clear
3:35 PM 57.4 °F - 25.0 °F 29% 30.45 in 10.0 mi NNE 9.2 mph 16.1 mph N/A   Clear
3:55 PM 56.1 °F - 25.5 °F 31% 30.44 in 10.0 mi North 11.5 mph - N/A   Clear
4:15 PM 55.8 °F - 24.8 °F 30% 30.45 in 10.0 mi NNE 8.1 mph - N/A   Clear
4:35 PM 54.3 °F - 26.6 °F 34% 30.45 in 10.0 mi NNE 8.1 mph - N/A   Clear
4:55 PM 52.9 °F - 26.8 °F 36% 30.45 in 10.0 mi NNE 5.8 mph - N/A   Clear
5:15 PM 50.9 °F - 28.4 °F 42% 30.45 in 10.0 mi NNE 3.5 mph - N/A   Clear
5:35 PM 50.0 °F - 28.8 °F 44% 30.45 in 10.0 mi NNE 3.5 mph - N/A   Clear
5:55 PM 49.1 °F - 29.3 °F 46% 30.46 in 10.0 mi NNE 4.6 mph - N/A   Clear
6:15 PM 47.8 °F - 30.4 °F 51% 30.46 in 10.0 mi NNE 3.5 mph - N/A   Clear
6:35 PM 46.6 °F - 30.7 °F 54% 30.46 in 10.0 mi North 4.6 mph - N/A   Clear
6:55 PM 48.4 °F - 29.3 °F 48% 30.45 in 10.0 mi North 8.1 mph - N/A   Clear
7:15 PM 47.7 °F - 30.2 °F 51% 30.46 in 10.0 mi North 6.9 mph - N/A   Clear
7:35 PM 47.3 °F - 29.8 °F 51% 30.46 in 10.0 mi North 5.8 mph - N/A   Clear
7:55 PM 45.7 °F 44.4 °F 30.6 °F 56% 30.46 in 10.0 mi ENE 3.5 mph - N/A   Clear
8:15 PM 45.1 °F 42.0 °F 30.2 °F 56% 30.46 in 10.0 mi North 5.8 mph - N/A   Clear
8:35 PM 45.1 °F 42.8 °F 30.2 °F 56% 30.46 in 10.0 mi North 4.6 mph - N/A   Clear
8:55 PM 44.2 °F 41.8 °F 30.7 °F 59% 30.46 in 10.0 mi NNE 4.6 mph - N/A   Clear
9:15 PM 43.3 °F 40.7 °F 31.1 °F 62% 30.45 in 10.0 mi NNE 4.6 mph - N/A   Clear
9:35 PM 43.2 °F 41.5 °F 31.1 °F 62% 30.45 in 10.0 mi NNE 3.5 mph - N/A   Clear
9:55 PM 44.2 °F 42.7 °F 30.4 °F 58% 30.45 in 10.0 mi NE 3.5 mph - N/A   Clear
10:15 PM 44.8 °F 42.4 °F 31.6 °F 60% 30.44 in 10.0 mi NE 4.6 mph - N/A   Clear
10:35 PM 44.2 °F 41.8 °F 32.0 °F 62% 30.44 in 10.0 mi NE 4.6 mph - N/A   Clear
10:55 PM 44.6 °F 40.2 °F 31.5 °F 60% 30.44 in 10.0 mi NE 8.1 mph - N/A   Clear
11:15 PM 43.9 °F 40.5 °F 31.5 °F 62% 30.43 in 10.0 mi NE 5.8 mph - N/A   Clear
11:35 PM 43.5 °F 40.9 °F 31.1 °F 62% 30.43 in 10.0 mi NE 4.6 mph - N/A   Clear
11:55 PM 43.9 °F 38.8 °F 30.2 °F 59% 30.43 in 10.0 mi NE 9.2 mph - N/A   Clear